Location: Napa Soda Springs
(38.3907°N, 122.2794°W)
Time: 06:37:51
(UTC+00:00)

Cosmos 1484 Rocket - Pass Details

Date: 29 October 2020
Orbit: 504 x 560 km, 97.4° (Epoch: 02 December)

Event Time Altitude Azimuth Distance (km) Brightness Sun altitude
Rises 13:15:24 0° 2° (N) 2,682 6.3 -15.7°
Reaches altitude 10° 13:17:38 10° 354° (N) 1,777 5.3 -15.3°
Maximum altitude 13:21:09 35° 287° (WNW) 853 3.3 -14.6°
Drops below altitude 10° 13:24:34 10° 221° (SW) 1,737 5.0 -13.9°
Sets 13:26:45 0° 212° (SSW) 2,611 6.0 -13.5°
